Погода в Ужгороде

Погода в Ужгороде : погода сейчас, прогноз погоды и архив. Всё, что Вы хотите узнать о погоде в Ужгороде!

Поиск расширенной информации на нашем сайте:

Другие новости

Новости СМИ2

Главная страница сайта

Новости сайта

03.07.2017

Напоминаем, что на нашем специализированном сайте Метеоцентр.Азия вы можете получить высокодетализированные автоматические прогнозы погоды по пунктам России, СНГ и мира в авиационном формате (включающие направление и скорость ветра, видимость, явления погоды, количество и форму облачности, нижнюю и верхнюю границу облачности).

Рекомендуем: Новые правила по торговле ИП пивом в 2017 году

Погода в Ужгороде - сегодня

Время (UTC), дата Ветер
(°,м/с) 
Видим.   Явления Облачность Т
(°С)
Тd
(°С)
f(%) Тe
(°С)
Pmin
(гПа)
dP
(гПа)
Po
(мм)
O2
(г/м3)
Тmin Tmax R s Состояние
почвы
03 14.08.18 110 (В) 10 км    3/0 средняя 
[Ac trans]
+21.8 +15.1 66 +31  1012.1  -0.1  749  276           
09 14.08.18 150 (ЮВ) 10 км    3/3 1000 м 
[Cu hum]
+29.3 +14.9 42 +38  1011.8  -0.3  749  270           
12 14.08.18 170 (Ю) 10 км    4/4 1000 м 
[Cu hum]
+31.6 +14.7 36 +40  1010.5  -1.2  748  267           
15 14.08.18 280 (З) 10 км  гроза без осадков  8/8 1200 м кучево-дожд. 
[Cb calv]
+29.7 +15.7 43 +40  1009.6  -0.9  747  268           
18 14.08.18 100 (В) 10 км  {гроза, ливн. осадки}  4/4 1000 м 
[Sc]
+23.9 +18.4 71 +39  1009.9  747  273    +33     
21 14.08.18 300 (СЗ) 10 км    4/4 1000 м 
[Sc]
+21.5 +18 80 +36  1011.5  1.4  748  275           
00 15.08.18 070 (В) 10 км    10/10 1080 м 
[Sc]
+21.1 +17.7 81 +35  1011.7  0.2  749  276           
03 15.08.18 тихо ()   10 км    8/3 1000 м верхняя 
[Sc|Ci fib]
+18.3 +16.8 91 +30  1012.7  0.8  749  279           
06 15.08.18 100 (В) 10 км    8/0 средняя 
[Ac trans]
+20.5 +17.7 84 +34  1013.5  0.9  750  277  +17.1         
09 15.08.18 250 (З) 10 км    10/8 1200 м кучево-дожд., средняя 
[Cb calv|Ac As]
+23.2 +18.3 74 +38  1014.6  1.3  751  275           
12 15.08.18 140 (ЮВ) 10 км  гроза, ливневой дождь  10/8 900 м кучево-дожд., средняя 
[Cb cap|Ac As]
+24.7 +18.9 70 +41  1015  0.5  751  273      0.3     
15 15.08.18 070 (В) 10 км  {гроза, ливн. осадки}  10/3 1500 м средняя 
[Sc|As trans]
+23.4 +18.5 74 +39  1014.7  -0.4  751  274           
18 15.08.18 050 (СВ) 10 км  {гроза, ливн. осадки}  8/6 1500 м верхняя 
[Sc|Ci fib]
+22.3 +16.4 69 +33  1015.6  0.8  751  276    +27.1  0.3     
21 15.08.18 тихо ()   10 км    8/4 1000 м средняя 
[Sc|Ac trans]
+20.2 +16.9 81 +32  1016.1  0.4  752  278           
00 16.08.18 тихо ()   10 км    6/6 1000 м 
[Sc]
+20 +14.9 72 +28  1016.4  0.3  752  279           
03 16.08.18 040 (СВ) 10 км    8/8 1000 м 
[Sc]
+21.2 +13.2 60 +27  1016.3  -0.1  752  279           
06 16.08.18 тихо ()   10 км    8/4 1000 м средняя 
[Sc|Ac trans]
+20.6 +15.4 72 +30  1017  0.7  752  279  +19.1         
09 16.08.18 090 (В) 10 км    9/4 1500 м средняя 
[Sc|Ac trans]
+24.5 +16 59 +35  1017.1  0.2  753  275           
12 16.08.18 070 (В) 20000 м    8/5 1500 м средняя 
[Cu med, cong|Ac trans]
+26.6 +15.2 50 +36  1016.4  -0.6  752  273           
15 16.08.18 070 (В) 20000 м    3/3 1500 м 
[Cu med, cong]
+26.8 +14.7 47 +35  1015.3  -1  751  273           
18 16.08.18 070 (В) 20000 м    4/3 1500 м средняя 
[Sc|Ac trans]
+23.5 +15.1 59 +32  1015.7  0.3  752  276    +28.2       
21 16.08.18 тихо ()   10 км    3/0 средняя 
[Ac trans]
+19.5 +15.2 76 +28  1016.5  0.6  752  280           
00 17.08.18 тихо ()   10 км    ясно 
+16.5 +14.6 89 +24  1016.6  -0.1  752  283           
03 17.08.18 тихо ()   10 км    3/0 средняя 
[Ac trans]
+14.9 +13.6 92 +21  1016.6  -0.1  752  285           
06 17.08.18 тихо ()   10 км    3/0 средняя 
[Ac trans]
+18.1 +15.2 83 +27  1016.7  0.3  752  281  +14.8         
Время (UTC), дата Ветер
(°,м/с) 
Видим.   Явления Облачность Т
(°С)
Тd
(°С)
f(%) Тe
(°С)
Pmin
(гПа)
dP
(гПа)
Po
(мм)
O2
(г/м3)
Тmin Tmax R s Состояние
почвы

Для получения пояснительной информации подведите курсор к названию столбца.

ПОГОДА в Ужгороде - архив

Всё, что Вы хотите узнать о погоде в Ужгороде - удобно и подробно!

Выберите нужную дату (начиная с 1 января 2015* года) и нажмите кнопку "Найти".
Будут отображены архивные сводки погоды по пункту Ужгород, начиная с указанной даты.


Отображать данные в формате CSV (для использования в таблицах Excel)


Внимание! Наш архив погоды предназначен исключительно для личного некоммерческого использования в познавательных целях. Если Вам необходимы официальные справки о состоянии погоды (для производственных, юридических, коммерческих и т.п. целей), обращайтесь в органы Росгидромета.

*Примечание: данная дата относится к архиву по метеостанциям СССР (Россия, СНГ, Балтия).
Архив по метеостанциям Зарубежной Европы и Азии (кроме Китая) хранится 10 дней, по другим регионам земного шара (Китай, Африка, Америка, Австралия, Океания) - 1 день.

Ужгород - район местоположения метеостанции


Название, широта, долгота, высота метеостанции:
Ужгород 48.6°ш. 22.3°д. 124 м над ур. моря [Украина]

Дополнительная информация

В oтличие oт бoльшинства пoгoдных сайтoв мы публикуем пoдрoбную метеoинфoрмацию в детальнoм прoфессиoнальнoм фoрмате.

Характеристики температуры и влажнoсти вoздуха измеряются на высoте 2 м в тени вдали oт зданий и деревьев.
Скoрoсть ветра измеряется на высoте 10 м (на урoвне рoста челoвека скoрoсть ветра ниже в 1.5-2 раза). Если метеoстанция нахoдится в гoрoде или в лесу, тo скoрoсть ветра занижена на 2-4 м/с пo сравнению с oткрытым местoм. Скoрoсть ветра над акватoриями крупных рек и oзёр, а также на вершинах хoлмoв на 2-5 м/с выше, чем в oбычных услoвиях.
Атмoсфернoе давление в разных тoчках местнoсти мoжет значительнo oтличаться oт давления на метеoстанции, в зависимoсти oт услoвий рельефа (при пoдъёме на 10 м давление пoнижается примернo на 1 мм рт.ст.).